Home   Weather   Weißenfels   Past weeks

Flag for Germany Past Weather in Weißenfels, Saxony-Anhalt, Germany — Yesterday and Last 2 Weeks

Now
32 °F

Clear.


Feels Like: 29 °F
Forecast: 22 / 33 °F
Wind: 3 mph from Southwest

Location: Leipzig-Schkeuditz

Current Time: Dec 3, 2016 at 4:47:33 pm

Latest Report: Dec 3, 2016 at 4:20 pm


Visibility: 10 mi

Pressure: 30.30 "Hg

Humidity: 87%

Dew Point: 28 °F

Location of WeißenfelsLocation

Past Weather in Weißenfels — Graph

°F

Weißenfels Temperature Yesterday

Maximum temperature yesterday: 46 °F (at 12:20 am)
Minimum temperature yesterday: 27 °F (at 10:20 pm)
Average temperature yesterday: 39 °F

High & Low Weather Summary for the Past Weeks

 TemperatureHumidityPressure
High55 °F (Nov 22, 1:20 pm)100% (Nov 23, 1:20 am)30.57 "Hg (Nov 23, 1:20 am)
Low21 °F (Nov 29, 6:50 am)54% (Nov 20, 2:20 pm)29.53 "Hg (Nov 18, 3:20 pm)
Average39 °F85%30.07 "Hg
* Reported Nov 18 3:20 pm — Dec 3 3:20 pm, Weißenfels, Weather by CustomWeather, © 2016

Note: Actual official high and low records may vary slightly from our data, if they occured in-between our weather recording intervals... More about our weather records

Advertising

Weißenfels Weather History for the Previous 24 Hours

Scroll right to see more
 ConditionsComfort  
Time TempWeatherWind HumidityBarometerVisibility
3:20 pm
Sat, Dec 3
36 °FSunny.2 mph81%30.30 "Hg10 mi
2:50 pm36 °FSunny.5 mph81%30.30 "Hg10 mi
2:20 pm36 °FSunny.3 mph81%30.30 "Hg10 mi
1:50 pm36 °FPassing clouds.3 mph81%30.30 "HgN/A
1:20 pm36 °FPassing clouds.3 mph81%30.30 "HgN/A
12:50 pm36 °FPassing clouds.5 mph81%30.30 "HgN/A
12:20 pm36 °FPassing clouds.3 mph81%30.30 "HgN/A
11:50 am34 °FSunny.2 mph87%30.30 "Hg10 mi
11:20 am34 °FSunny.3 mph81%30.30 "Hg10 mi
10:50 am32 °FSunny.3 mph87%30.30 "Hg10 mi
10:20 am30 °FSunny.3 mph86%30.30 "Hg10 mi
9:50 am30 °FSunny.2 mph86%30.30 "Hg10 mi
9:20 am28 °FSunny.2 mph86%30.30 "Hg10 mi
8:50 am25 °FSunny.5 mph100%30.27 "Hg10 mi
8:20 am25 °FSunny.3 mph100%30.27 "Hg10 mi
7:50 am23 °FClear.5 mph100%30.27 "Hg10 mi
7:20 am23 °FClear.3 mph100%30.27 "Hg10 mi
6:50 am25 °FClear.5 mph93%30.24 "Hg10 mi
6:20 am25 °FClear.7 mph93%30.24 "Hg10 mi
5:50 am23 °FClear.6 mph100%30.24 "Hg10 mi
5:20 am25 °FClear.6 mph100%30.24 "Hg10 mi
4:50 am25 °FClear.8 mph93%30.24 "Hg10 mi
4:20 am25 °FClear.6 mph93%30.24 "Hg10 mi
3:50 am25 °FClear.6 mph93%30.24 "Hg10 mi
3:20 am25 °FClear.7 mph93%30.24 "Hg10 mi
2:50 am25 °FClear.8 mph93%30.21 "Hg10 mi
2:20 am25 °FClear.7 mph93%30.24 "Hg10 mi
1:50 am27 °FClear.6 mph93%30.21 "Hg10 mi
1:20 am27 °FClear.6 mph93%30.21 "Hg10 mi
12:50 am27 °FClear.5 mph93%30.21 "Hg10 mi
12:20 am27 °FClear.7 mph86%30.21 "Hg10 mi
11:50 pm
Fri, Dec 2
27 °FClear.7 mph93%30.21 "Hg10 mi
11:20 pm27 °FClear.7 mph86%30.21 "Hg10 mi
10:50 pm28 °FClear.7 mph86%30.21 "Hg10 mi
10:20 pm27 °FClear.8 mph86%30.21 "Hg10 mi
9:50 pm30 °FClear.7 mph80%30.21 "Hg10 mi
9:20 pm30 °FClear.8 mph86%30.21 "Hg10 mi
8:50 pm30 °FClear.8 mph86%30.21 "Hg10 mi
8:20 pm32 °FClear.8 mph80%30.18 "Hg10 mi
7:50 pm30 °FClear.7 mph86%30.18 "Hg10 mi
7:20 pm30 °FClear.7 mph86%30.18 "Hg10 mi
6:50 pm30 °FClear.7 mph93%30.18 "Hg10 mi
6:20 pm30 °FClear.5 mph86%30.18 "Hg10 mi
5:50 pm36 °FClear.7 mph75%30.15 "Hg10 mi
5:20 pm36 °FClear.10 mph81%30.15 "Hg10 mi
4:50 pm36 °FClear.8 mph81%30.15 "Hg10 mi
4:20 pm37 °FClear.8 mph75%30.15 "Hg10 mi
Weather by CustomWeather, © 2016

See weather overviewHow to use our weather pages